Location: Walkway Over the Hudson
(41.7107°N, 73.9509°W)
Time: 22:21:32
(UTC-04:00)

ISS - Visible Passes

Search period start: 19 April 2026 00:00
Search period end: 29 April 2026 00:00
Orbit: 416 x 425 km, 51.6° (Epoch: 19 April)

Date Brightness Start Highest point End Pass type
(mag) Time Alt. Az. Time Alt. Az. Time Alt. Az.
19 Apr -2.8 04:51:26 21° SSW 04:53:16 41° SE 04:56:28 10° ENE visible
20 Apr -2.0 04:06:05 24° SE 04:06:05 24° SE 04:08:53 10° ENE visible
21 Apr -0.7 03:20:39 11° E 03:20:39 11° E 03:20:54 10° E visible
21 Apr -3.7 04:53:37 25° WSW 04:55:24 68° NNW 04:58:46 10° NE visible
22 Apr -3.8 04:08:06 73° SE 04:08:06 73° SE 04:11:27 10° ENE visible
23 Apr -1.5 03:22:30 22° E 03:22:30 22° E 03:23:59 10° ENE visible
23 Apr -2.4 04:55:28 15° W 04:57:41 30° NNW 05:00:44 10° NE visible
24 Apr -3.0 04:09:48 40° NW 04:10:12 43° NNW 04:13:28 10° NE visible
25 Apr -2.0 03:24:05 33° NE 03:24:05 33° NE 03:26:08 10° NE visible
25 Apr -1.5 04:57:34 10° WNW 05:00:04 19° NNW 05:02:35 10° NE visible
26 Apr -0.6 02:38:19 13° ENE 02:38:19 13° ENE 02:38:44 10° ENE visible
26 Apr -1.8 04:11:16 19° NW 04:12:29 23° NNW 04:15:15 10° NE visible
27 Apr -1.9 03:25:27 28° N 03:25:27 28° N 03:27:56 10° NE visible
27 Apr -1.1 05:00:24 10° NW 05:02:31 15° N 05:04:38 10° NE visible
28 Apr -0.8 02:39:36 17° NE 02:39:36 17° NE 02:40:36 10° NE visible
28 Apr -1.2 04:12:34 10° NW 04:14:50 17° N 04:17:05 10° NNE visible
